Time,TemperatureF,DewpointF,PressureIn,WindDirection,WindDirectionDegrees,WindSpeedMPH,WindSpeedGustMPH,Humidity,HourlyPrecipIn,Conditions,Clouds,dailyrainin,SoftwareType,DateUTC
2013-02-16 00:02:00,19.0,3.0,30.52,ENE,67,0.0,-999.0,50,-99.99,,,-99.99,,2013-02-16 07:02:00,
2013-02-16 00:11:00,19.0,3.0,30.52,ENE,67,0.0,-999.0,50,-99.99,,,-99.99,,2013-02-16 07:11:00,
2013-02-16 00:21:00,18.0,3.0,30.51,ENE,67,0.0,-999.0,50,-99.99,,,-99.99,,2013-02-16 07:21:00,
2013-02-16 00:31:00,18.0,3.0,30.52,ENE,67,0.0,-999.0,51,-99.99,,,-99.99,,2013-02-16 07:31:00,
2013-02-16 00:42:00,18.0,3.0,30.52,ENE,67,0.0,-999.0,51,-99.99,,,-99.99,,2013-02-16 07:42:00,
2013-02-16 00:52:00,18.0,4.0,30.52,ENE,67,0.0,-999.0,53,-99.99,,,-99.99,,2013-02-16 07:52:00,
2013-02-16 01:01:00,18.0,3.0,30.52,ENE,67,0.0,-999.0,51,-99.99,,,-99.99,,2013-02-16 08:01:00,
2013-02-16 01:11:00,18.0,3.0,30.52,ENE,67,0.0,-999.0,51,-99.99,,,-99.99,,2013-02-16 08:11:00,
2013-02-16 01:21:00,17.0,2.0,30.52,ENE,67,0.0,-999.0,51,-99.99,,,-99.99,,2013-02-16 08:21:00,
2013-02-16 01:31:00,18.0,4.0,30.52,ENE,67,0.0,-999.0,53,-99.99,,,-99.99,,2013-02-16 08:31:00,
2013-02-16 01:41:00,18.0,4.0,30.52,ENE,67,0.0,-999.0,53,-99.99,,,-99.99,,2013-02-16 08:41:00,
2013-02-16 01:52:00,17.0,3.0,30.52,ENE,67,0.0,-999.0,53,-99.99,,,-99.99,,2013-02-16 08:52:00,
2013-02-16 02:01:00,17.0,3.0,30.52,ENE,67,0.0,-999.0,54,-99.99,,,-99.99,,2013-02-16 09:01:00,
2013-02-16 02:11:00,17.0,3.0,30.52,ENE,67,0.0,-999.0,54,-99.99,,,-99.99,,2013-02-16 09:11:00,
2013-02-16 02:21:00,16.0,3.0,30.52,ENE,67,0.0,-999.0,56,-99.99,,,-99.99,,2013-02-16 09:21:00,
2013-02-16 02:31:00,16.0,2.0,30.52,ENE,67,0.0,-999.0,54,-99.99,,,-99.99,,2013-02-16 09:31:00,
2013-02-16 02:42:00,16.0,2.0,30.52,ENE,67,0.0,-999.0,54,-99.99,,,-99.99,,2013-02-16 09:42:00,
2013-02-16 02:51:00,16.0,2.0,30.52,ENE,67,0.0,-999.0,54,-99.99,,,-99.99,,2013-02-16 09:51:00,
2013-02-16 03:01:00,15.0,3.0,30.51,ENE,67,0.0,-999.0,57,-99.99,,,-99.99,,2013-02-16 10:01:00,
2013-02-16 03:11:00,15.0,3.0,30.51,ENE,67,0.0,-999.0,57,-99.99,,,-99.99,,2013-02-16 10:11:00,
2013-02-16 03:21:00,15.0,3.0,30.51,ENE,67,0.0,-999.0,57,-99.99,,,-99.99,,2013-02-16 10:21:00,
2013-02-16 03:31:00,15.0,3.0,30.51,ENE,67,0.0,-999.0,57,-99.99,,,-99.99,,2013-02-16 10:31:00,
2013-02-16 03:52:00,15.0,3.0,30.51,ENE,67,0.0,-999.0,57,-99.99,,,-99.99,,2013-02-16 10:52:00,
2013-02-16 04:02:00,15.0,2.0,30.51,ENE,67,0.0,-999.0,56,-99.99,,,-99.99,,2013-02-16 11:02:00,
2013-02-16 04:11:00,15.0,2.0,30.51,ENE,67,0.0,-999.0,56,-99.99,,,-99.99,,2013-02-16 11:11:00,
2013-02-16 04:22:00,15.0,2.0,30.50,ENE,67,0.0,-999.0,56,-99.99,,,-99.99,,2013-02-16 11:22:00,
2013-02-16 04:31:00,14.0,1.0,30.50,ENE,67,0.0,-999.0,56,-99.99,,,-99.99,,2013-02-16 11:31:00,
2013-02-16 04:42:00,14.0,1.0,30.50,ENE,67,0.0,-999.0,56,-99.99,,,-99.99,,2013-02-16 11:42:00,
2013-02-16 04:52:00,14.0,1.0,30.50,ENE,67,0.0,-999.0,56,-99.99,,,-99.99,,2013-02-16 11:52:00,
2013-02-16 05:01:00,13.0,2.0,30.50,ENE,67,0.0,-999.0,60,-99.99,,,-99.99,,2013-02-16 12:01:00,
2013-02-16 05:12:00,13.0,2.0,30.50,ENE,67,0.0,-999.0,60,-99.99,,,-99.99,,2013-02-16 12:12:00,
2013-02-16 05:22:00,13.0,2.0,30.50,ENE,67,0.0,-999.0,60,-99.99,,,-99.99,,2013-02-16 12:22:00,
2013-02-16 05:32:00,14.0,3.0,30.51,ENE,67,0.0,-999.0,60,-99.99,,,-99.99,,2013-02-16 12:32:00,
2013-02-16 05:42:00,14.0,3.0,30.51,ENE,67,0.0,-999.0,60,-99.99,,,-99.99,,2013-02-16 12:42:00,
2013-02-16 05:52:00,13.0,1.0,30.51,ENE,67,0.0,-999.0,58,-99.99,,,-99.99,,2013-02-16 12:52:00,
2013-02-16 06:01:00,13.0,1.0,30.52,ENE,67,0.0,-999.0,59,-99.99,,,-99.99,,2013-02-16 13:01:00,
2013-02-16 06:11:00,13.0,1.0,30.51,ENE,67,0.0,-999.0,59,-99.99,,,-99.99,,2013-02-16 13:11:00,
2013-02-16 06:21:00,13.0,1.0,30.51,ENE,67,0.0,-999.0,59,-99.99,,,-99.99,,2013-02-16 13:21:00,
2013-02-16 06:31:00,13.0,2.0,30.51,ENE,67,0.0,-999.0,60,-99.99,,,-99.99,,2013-02-16 13:31:00,
2013-02-16 06:41:00,13.0,2.0,30.51,ENE,67,0.0,-999.0,60,-99.99,,,-99.99,,2013-02-16 13:41:00,
2013-02-16 06:51:00,13.0,2.0,30.52,ENE,67,0.0,-999.0,60,-99.99,,,-99.99,,2013-02-16 13:51:00,
2013-02-16 07:01:00,13.0,1.0,30.52,ENE,67,0.0,-999.0,58,-99.99,,,-99.99,,2013-02-16 14:01:00,
2013-02-16 07:11:00,13.0,1.0,30.52,ENE,67,0.0,-999.0,58,-99.99,,,-99.99,,2013-02-16 14:11:00,
2013-02-16 07:21:00,13.0,2.0,30.52,ENE,67,0.0,-999.0,60,-99.99,,,-99.99,,2013-02-16 14:21:00,
2013-02-16 07:32:00,13.0,1.0,30.52,ENE,67,0.0,-999.0,58,-99.99,,,-99.99,,2013-02-16 14:32:00,
2013-02-16 07:41:00,13.0,1.0,30.52,ENE,67,0.0,-999.0,58,-99.99,,,-99.99,,2013-02-16 14:41:00,
2013-02-16 07:52:00,13.0,1.0,30.52,ENE,67,0.0,-999.0,58,-99.99,,,-99.99,,2013-02-16 14:52:00,
2013-02-16 08:01:00,14.0,1.0,30.53,ENE,67,0.0,-999.0,56,-99.99,,,-99.99,,2013-02-16 15:01:00,
2013-02-16 08:11:00,14.0,1.0,30.53,ENE,67,0.0,-999.0,56,-99.99,,,-99.99,,2013-02-16 15:11:00,
2013-02-16 08:21:00,14.0,2.0,30.53,ENE,67,0.0,-999.0,58,-99.99,,,-99.99,,2013-02-16 15:21:00,
2013-02-16 08:31:00,16.0,4.0,30.53,ENE,67,0.0,-999.0,59,-99.99,,,-99.99,,2013-02-16 15:31:00,
2013-02-16 08:41:00,16.0,4.0,30.53,ENE,67,0.0,-999.0,59,-99.99,,,-99.99,,2013-02-16 15:41:00,
2013-02-16 08:51:00,16.0,3.0,30.53,ENE,67,0.0,-999.0,57,-99.99,,,-99.99,,2013-02-16 15:51:00,
2013-02-16 09:01:00,17.0,4.0,30.53,ENE,67,0.0,-999.0,55,-99.99,,,-99.99,,2013-02-16 16:01:00,
2013-02-16 09:11:00,17.0,4.0,30.53,ENE,67,0.0,-999.0,55,-99.99,,,-99.99,,2013-02-16 16:11:00,
2013-02-16 09:21:00,19.0,5.0,30.53,ENE,67,0.0,-999.0,53,-99.99,,,-99.99,,2013-02-16 16:21:00,
2013-02-16 09:32:00,20.0,5.0,30.53,ENE,67,0.0,-999.0,51,-99.99,,,-99.99,,2013-02-16 16:32:00,
2013-02-16 09:41:00,20.0,5.0,30.53,ENE,67,0.0,-999.0,51,-99.99,,,-99.99,,2013-02-16 16:41:00,
2013-02-16 09:51:00,22.0,5.0,30.51,ENE,67,0.0,-999.0,48,-99.99,,,-99.99,,2013-02-16 16:51:00,
2013-02-16 10:01:00,23.0,6.0,30.51,ENE,67,0.0,-999.0,48,-99.99,,,-99.99,,2013-02-16 17:01:00,
2013-02-16 10:11:00,23.0,6.0,30.51,ENE,67,0.0,-999.0,48,-99.99,,,-99.99,,2013-02-16 17:11:00,
2013-02-16 10:21:00,25.0,6.0,30.51,SE,134,1.0,-999.0,44,-99.99,,,-99.99,,2013-02-16 17:21:00,
2013-02-16 10:31:00,27.0,7.0,30.50,SE,132,1.0,-999.0,42,-99.99,,,-99.99,,2013-02-16 17:31:00,
2013-02-16 10:41:00,27.0,7.0,30.50,SE,132,1.0,-999.0,42,-99.99,,,-99.99,,2013-02-16 17:41:00,
2013-02-16 10:52:00,28.0,7.0,30.49,SE,130,1.0,-999.0,40,-99.99,,,-99.99,,2013-02-16 17:52:00,
2013-02-16 11:01:00,31.0,8.0,30.49,SE,138,1.0,-999.0,38,-99.99,,,-99.99,,2013-02-16 18:01:00,
2013-02-16 11:11:00,32.0,9.0,30.49,SE,140,1.0,-999.0,37,-99.99,,,-99.99,,2013-02-16 18:11:00,
2013-02-16 11:21:00,32.0,9.0,30.49,SE,140,1.0,-999.0,37,-99.99,,,-99.99,,2013-02-16 18:21:00,
2013-02-16 11:32:00,33.0,8.0,30.48,SSE,167,1.0,-999.0,35,-99.99,,,-99.99,,2013-02-16 18:32:00,
2013-02-16 11:42:00,33.0,8.0,30.48,SSE,167,1.0,-999.0,35,-99.99,,,-99.99,,2013-02-16 18:42:00,
2013-02-16 11:51:00,34.0,9.0,30.47,SSE,167,1.0,-999.0,34,-99.99,,,-99.99,,2013-02-16 18:51:00,
2013-02-16 12:02:00,35.0,10.0,30.46,WNW,288,1.0,-999.0,35,-99.99,,,-99.99,,2013-02-16 19:02:00,
2013-02-16 12:11:00,35.0,10.0,30.46,WNW,288,1.0,-999.0,35,-99.99,,,-99.99,,2013-02-16 19:11:00,
2013-02-16 12:21:00,35.0,11.0,30.45,WNW,296,3.0,-999.0,36,-99.99,,,-99.99,,2013-02-16 19:21:00,
2013-02-16 12:31:00,36.0,10.0,30.45,West,265,4.0,-999.0,34,-99.99,,,-99.99,,2013-02-16 19:31:00,
2013-02-16 12:42:00,36.0,10.0,30.45,West,265,4.0,-999.0,34,-99.99,,,-99.99,,2013-02-16 19:42:00,
2013-02-16 12:52:00,36.0,12.0,30.44,SSW,210,3.0,-999.0,36,-99.99,,,-99.99,,2013-02-16 19:52:00,
2013-02-16 13:01:00,36.0,14.0,30.43,West,276,3.0,-999.0,40,-99.99,,,-99.99,,2013-02-16 20:01:00,
2013-02-16 13:11:00,36.0,13.0,30.42,SSW,205,3.0,-999.0,38,-99.99,,,-99.99,,2013-02-16 20:11:00,
2013-02-16 13:21:00,36.0,13.0,30.42,SSW,205,3.0,-999.0,38,-99.99,,,-99.99,,2013-02-16 20:21:00,
2013-02-16 13:32:00,36.0,12.0,30.42,West,276,4.0,-999.0,36,-99.99,,,-99.99,,2013-02-16 20:32:00,
2013-02-16 13:42:00,36.0,12.0,30.42,West,276,4.0,-999.0,36,-99.99,,,-99.99,,2013-02-16 20:42:00,
2013-02-16 13:52:00,36.0,12.0,30.42,West,276,4.0,-999.0,36,-99.99,,,-99.99,,2013-02-16 20:52:00,
2013-02-16 14:02:00,37.0,13.0,30.40,WNW,296,4.0,-999.0,37,-99.99,,,-99.99,,2013-02-16 21:02:00,
2013-02-16 14:11:00,37.0,13.0,30.40,WNW,296,4.0,-999.0,37,-99.99,,,-99.99,,2013-02-16 21:11:00,
2013-02-16 14:21:00,37.0,13.0,30.40,WNW,286,4.0,-999.0,36,-99.99,,,-99.99,,2013-02-16 21:21:00,
2013-02-16 14:31:00,38.0,13.0,30.39,West,271,4.0,-999.0,36,-99.99,,,-99.99,,2013-02-16 21:31:00,
2013-02-16 14:41:00,38.0,13.0,30.39,West,271,4.0,-999.0,36,-99.99,,,-99.99,,2013-02-16 21:41:00,
2013-02-16 14:52:00,39.0,14.0,30.39,SSW,192,2.0,-999.0,36,-99.99,,,-99.99,,2013-02-16 21:52:00,
2013-02-16 15:01:00,40.0,15.0,30.37,West,271,2.0,-999.0,36,-99.99,,,-99.99,,2013-02-16 22:01:00,
2013-02-16 15:11:00,40.0,15.0,30.37,West,271,2.0,-999.0,36,-99.99,,,-99.99,,2013-02-16 22:11:00,
2013-02-16 15:21:00,40.0,15.0,30.37,West,271,2.0,-999.0,36,-99.99,,,-99.99,,2013-02-16 22:21:00,
2013-02-16 15:31:00,40.0,16.0,30.36,South,171,3.0,-999.0,38,-99.99,,,-99.99,,2013-02-16 22:31:00,
2013-02-16 15:42:00,40.0,16.0,30.36,South,171,3.0,-999.0,38,-99.99,,,-99.99,,2013-02-16 22:42:00,
2013-02-16 15:52:00,41.0,17.0,30.36,East,99,2.0,-999.0,37,-99.99,,,-99.99,,2013-02-16 22:52:00,
2013-02-16 16:02:00,42.0,18.0,30.35,West,277,2.0,-999.0,37,-99.99,,,-99.99,,2013-02-16 23:02:00,
2013-02-16 16:11:00,42.0,18.0,30.35,West,277,2.0,-999.0,37,-99.99,,,-99.99,,2013-02-16 23:11:00,
2013-02-16 16:21:00,41.0,16.0,30.34,South,190,2.0,-999.0,36,-99.99,,,-99.99,,2013-02-16 23:21:00,
2013-02-16 16:31:00,42.0,17.0,30.34,South,190,1.0,-999.0,36,-99.99,,,-99.99,,2013-02-16 23:31:00,
2013-02-16 16:42:00,42.0,17.0,30.34,South,190,1.0,-999.0,36,-99.99,,,-99.99,,2013-02-16 23:42:00,
2013-02-16 16:52:00,41.0,17.0,30.33,West,280,0.0,-999.0,37,-99.99,,,-99.99,,2013-02-16 23:52:00,
2013-02-16 17:01:00,41.0,19.0,30.33,West,280,1.0,-999.0,40,-99.99,,,-99.99,,2013-02-17 00:01:00,
2013-02-16 17:11:00,41.0,19.0,30.33,West,280,1.0,-999.0,40,-99.99,,,-99.99,,2013-02-17 00:11:00,
2013-02-16 17:21:00,37.0,18.0,30.32,West,280,0.0,-999.0,45,-99.99,,,-99.99,,2013-02-17 00:21:00,
2013-02-16 17:31:00,35.0,18.0,30.32,West,280,0.0,-999.0,50,-99.99,,,-99.99,,2013-02-17 00:31:00,
2013-02-16 17:41:00,35.0,18.0,30.32,West,280,0.0,-999.0,50,-99.99,,,-99.99,,2013-02-17 00:41:00,
2013-02-16 17:51:00,32.0,19.0,30.32,West,280,0.0,-999.0,57,-99.99,,,-99.99,,2013-02-17 00:51:00,
2013-02-16 18:01:00,33.0,18.0,30.32,West,280,0.0,-999.0,53,-99.99,,,-99.99,,2013-02-17 01:01:00,
2013-02-16 18:21:00,32.0,19.0,30.32,West,280,0.0,-999.0,58,-99.99,,,-99.99,,2013-02-17 01:21:00,
2013-02-16 18:31:00,31.0,19.0,30.31,West,280,0.0,-999.0,60,-99.99,,,-99.99,,2013-02-17 01:31:00,
2013-02-16 18:41:00,31.0,19.0,30.31,West,280,0.0,-999.0,60,-99.99,,,-99.99,,2013-02-17 01:41:00,
2013-02-16 18:52:00,30.0,17.0,30.32,West,280,0.0,-999.0,58,-99.99,,,-99.99,,2013-02-17 01:52:00,
2013-02-16 19:01:00,30.0,17.0,30.32,West,280,0.0,-999.0,57,-99.99,,,-99.99,,2013-02-17 02:01:00,
2013-02-16 19:11:00,30.0,17.0,30.32,West,280,0.0,-999.0,57,-99.99,,,-99.99,,2013-02-17 02:11:00,
2013-02-16 19:21:00,29.0,17.0,30.32,West,280,0.0,-999.0,61,-99.99,,,-99.99,,2013-02-17 02:21:00,
2013-02-16 19:31:00,29.0,16.0,30.32,West,280,0.0,-999.0,59,-99.99,,,-99.99,,2013-02-17 02:31:00,
2013-02-16 19:41:00,29.0,16.0,30.32,West,280,0.0,-999.0,59,-99.99,,,-99.99,,2013-02-17 02:41:00,
2013-02-16 19:51:00,27.0,15.0,30.33,West,280,0.0,-999.0,61,-99.99,,,-99.99,,2013-02-17 02:51:00,
2013-02-16 20:01:00,27.0,15.0,30.33,West,280,0.0,-999.0,60,-99.99,,,-99.99,,2013-02-17 03:01:00,
2013-02-16 20:11:00,27.0,15.0,30.33,West,280,0.0,-999.0,60,-99.99,,,-99.99,,2013-02-17 03:11:00,
2013-02-16 20:21:00,27.0,15.0,30.33,West,280,0.0,-999.0,60,-99.99,,,-99.99,,2013-02-17 03:21:00,
2013-02-16 20:31:00,26.0,15.0,30.34,West,280,0.0,-999.0,62,-99.99,,,-99.99,,2013-02-17 03:31:00,
2013-02-16 20:42:00,26.0,15.0,30.34,West,280,0.0,-999.0,62,-99.99,,,-99.99,,2013-02-17 03:42:00,
2013-02-16 20:51:00,26.0,15.0,30.34,West,280,0.0,-999.0,63,-99.99,,,-99.99,,2013-02-17 03:51:00,
2013-02-16 21:01:00,25.0,15.0,30.34,West,280,0.0,-999.0,64,-99.99,,,-99.99,,2013-02-17 04:01:00,
2013-02-16 21:11:00,25.0,14.0,30.33,West,280,0.0,-999.0,62,-99.99,,,-99.99,,2013-02-17 04:11:00,
2013-02-16 21:21:00,25.0,14.0,30.33,West,280,0.0,-999.0,62,-99.99,,,-99.99,,2013-02-17 04:21:00,
2013-02-16 21:31:00,24.0,13.0,30.33,West,280,0.0,-999.0,62,-99.99,,,-99.99,,2013-02-17 04:31:00,
2013-02-16 21:41:00,24.0,13.0,30.33,West,280,0.0,-999.0,62,-99.99,,,-99.99,,2013-02-17 04:41:00,
2013-02-16 21:51:00,24.0,13.0,30.33,West,280,0.0,-999.0,62,-99.99,,,-99.99,,2013-02-17 04:51:00,
2013-02-16 22:01:00,23.0,12.0,30.32,West,280,0.0,-999.0,61,-99.99,,,-99.99,,2013-02-17 05:01:00,
2013-02-16 22:12:00,23.0,12.0,30.32,West,280,0.0,-999.0,61,-99.99,,,-99.99,,2013-02-17 05:12:00,
2013-02-16 22:22:00,23.0,12.0,30.32,West,280,0.0,-999.0,61,-99.99,,,-99.99,,2013-02-17 05:22:00,
2013-02-16 22:32:00,22.0,11.0,30.32,West,280,0.0,-999.0,63,-99.99,,,-99.99,,2013-02-17 05:32:00,
2013-02-16 22:42:00,22.0,11.0,30.32,West,280,0.0,-999.0,63,-99.99,,,-99.99,,2013-02-17 05:42:00,
2013-02-16 22:52:00,21.0,11.0,30.32,West,280,0.0,-999.0,64,-99.99,,,-99.99,,2013-02-17 05:52:00,
2013-02-16 23:02:00,23.0,12.0,30.32,West,280,0.0,-999.0,62,-99.99,,,-99.99,,2013-02-17 06:02:00,
2013-02-16 23:11:00,23.0,12.0,30.32,West,280,0.0,-999.0,62,-99.99,,,-99.99,,2013-02-17 06:11:00,
2013-02-16 23:21:00,22.0,11.0,30.31,West,280,0.0,-999.0,61,-99.99,,,-99.99,,2013-02-17 06:21:00,
2013-02-16 23:31:00,21.0,10.0,30.30,West,280,0.0,-999.0,63,-99.99,,,-99.99,,2013-02-17 06:31:00,
2013-02-16 23:41:00,21.0,10.0,30.30,West,280,0.0,-999.0,63,-99.99,,,-99.99,,2013-02-17 06:41:00,
2013-02-16 23:51:00,21.0,10.0,30.30,West,279,0.0,-999.0,63,-99.99,,,-99.99,,2013-02-17 06:51:00,